Katherine, Australia

2:13 AM ACST on February 20, 2018 (GMT +0930)
Tindal (Military)

Weather History for YPTN - November, 2013

Change the Weather History Date:

Saturday, November 30, 2013

  Actual Average Record
Temperature  
Mean Temperature 86 °F -  
Max Temperature 99 °F - - ()
Min Temperature 73 °F - - ()
Cooling Degree Days 21    
Growing Degree Days 36 (Base 50)    
Moisture  
Dew Point 73 °F    
Average Humidity 75    
Maximum Humidity 100    
Minimum Humidity 31    
Precipitation  
Precipitation 0.00 in - - ()
Sea Level Pressure  
Sea Level Pressure 29.72 in    
Wind  
Wind Speed 8 mph ()    
Max Wind Speed 31 mph    
Max Gust Speed 59 mph    
Visibility 5.9 miles    
Events Rain , Hail    
T = Trace of Precipitation, MM = Missing Value Source: Averaged Metar Reports

Daily Weather History Graph

Daily Weather History Graph

Search for Another Location

Airport or City:

Trip Planner

Search our weather history database for the weather conditions in past years. The results will help you decide how hot, cold, wet, or windy it might be!

Date:

Astronomy

Nov. 30, 2013 Rise Set
Actual Time 6:02 AM ACST 6:56 PM ACST
Civil Twilight 5:39 AM ACST 7:20 PM ACST
Nautical Twilight 5:11 AM ACST 7:47 PM ACST
Astronomical Twilight 4:43 AM ACST 8:15 PM ACST
Moon 3:23 AM ACST (11/30) 4:13 PM ACST (11/30)
Length of Visible Light 13h 41m
Length of Day
12h 54m
Waning Crescent, 11% of the Moon is Illuminated
Nov 30
Waning Crescent
Dec 3
New
Dec 10
First Quarter
Dec 17
Full
Dec 25
Last Quarter

Hourly Weather History & Observations

Time (ACST) Temp. Heat Index Dew Point Humidity Pressure Visibility Wind Dir Wind Speed Gust Speed Precip Events Conditions
12:00 AM 78.8 °F - 73.4 °F 83% 29.74 in 6.2 mi North 6.9 mph - N/A   Unknown
12:30 AM 78.8 °F - 73.4 °F 83% 29.74 in 6.2 mi North 5.8 mph - N/A   Unknown
1:00 AM 78.8 °F - 75.2 °F 89% 29.74 in 6.2 mi NW 4.6 mph - N/A   Unknown
1:30 AM 77.0 °F - 73.4 °F 89% 29.71 in 6.2 mi NW 6.9 mph - N/A   Unknown
2:00 AM 77.0 °F - 73.4 °F 89% 29.71 in 6.2 mi NW 8.1 mph - N/A   Unknown
2:30 AM 77.0 °F - 71.6 °F 83% 29.71 in 6.2 mi WNW 8.1 mph - N/A   Unknown
3:00 AM 77.0 °F - 73.4 °F 89% 29.71 in 6.2 mi NW 6.9 mph - N/A   Unknown
3:30 AM 77.0 °F - 73.4 °F 89% 29.71 in 6.2 mi NNW 6.9 mph - N/A   Unknown
4:00 AM 77.0 °F - 73.4 °F 89% 29.71 in 6.2 mi NW 4.6 mph - N/A   Unknown
4:30 AM 77.0 °F - 75.2 °F 94% 29.71 in 6.2 mi NW 6.9 mph - N/A   Scattered Clouds
5:00 AM 77.0 °F - 73.4 °F 89% 29.71 in 6.2 mi WNW 4.6 mph - N/A   Scattered Clouds
5:30 AM 77.0 °F - 73.4 °F 89% 29.71 in 6.2 mi WNW 3.5 mph - N/A   Unknown
6:00 AM 77.0 °F - 75.2 °F 94% 29.71 in 6.2 mi WNW 4.6 mph - N/A   Unknown
6:30 AM 77.0 °F - 75.2 °F 94% 29.74 in 6.2 mi NW 5.8 mph - N/A   Unknown
7:00 AM 77.0 °F - 75.2 °F 94% 29.77 in 6.2 mi NW 5.8 mph - N/A   Scattered Clouds
7:30 AM 78.8 °F - 75.2 °F 89% 29.77 in 6.2 mi NW 6.9 mph - N/A   Scattered Clouds
8:00 AM 80.6 °F 86.2 °F 75.2 °F 84% 29.80 in 6.2 mi WNW 8.1 mph - N/A   Scattered Clouds
8:30 AM 82.4 °F 90.9 °F 77.0 °F 84% 29.80 in 6.2 mi WNW 10.4 mph - N/A   Scattered Clouds
9:00 AM 87 °F - 77 °F 66%  in 12 mi West 2.3 mph - -   Partly Cloudy
9:00 AM 84.2 °F 94.1 °F 77.0 °F 79% 29.80 in 6.2 mi WNW 9.2 mph - N/A   Scattered Clouds
9:30 AM 87.8 °F 97.6 °F 75.2 °F 66% 29.80 in 6.2 mi WNW 9.2 mph - N/A   Unknown
10:00 AM 89.6 °F 99.8 °F 75.2 °F 62% 29.77 in 6.2 mi WSW 9.2 mph - N/A   Unknown
10:30 AM 89.6 °F 98.2 °F 73.4 °F 59% 29.77 in 6.2 mi West 8.1 mph - N/A   Unknown
11:00 AM 91.4 °F 100.1 °F 73.4 °F 55% 29.77 in 6.2 mi West 6.9 mph - N/A   Unknown
11:30 AM 91.4 °F 100.1 °F 73.4 °F 55% 29.74 in 6.2 mi West 6.9 mph - N/A   Unknown
12:00 PM 93.2 °F 100.5 °F 71.6 °F 49% 29.74 in 6.2 mi South 6.9 mph - N/A   Unknown
12:30 PM 95.0 °F 103.2 °F 71.6 °F 47% 29.71 in 6.2 mi SSW 8.1 mph - N/A   Unknown
1:00 PM 95.0 °F 104.5 °F 73.4 °F 49% 29.71 in 6.2 mi West 3.5 mph - N/A   Unknown
1:30 PM 95.0 °F 103.2 °F 71.6 °F 47% 29.68 in 6.2 mi NNW 6.9 mph - N/A   Unknown
2:00 PM 95.0 °F 103.2 °F 71.6 °F 47% 29.68 in 6.2 mi West 5.8 mph - N/A   Scattered Clouds
2:30 PM 96.8 °F 105.1 °F 71.6 °F 44% 29.65 in 6.2 mi WNW 11.5 mph - N/A   Scattered Clouds
3:00 PM 99 °F - 71 °F 31%  in 12 mi West 2.3 mph - -   Partly Cloudy
3:00 PM 96.8 °F 103.1 °F 69.8 °F 41% 29.65 in 6.2 mi WNW 8.1 mph - N/A   Unknown
3:30 PM 98.6 °F 104.1 °F 68.0 °F 37% 29.62 in 6.2 mi WNW 5.8 mph - N/A   Scattered Clouds
4:00 PM 96.8 °F 101.8 °F 68.0 °F 39% 29.62 in 6.2 mi NNE 6.9 mph - N/A   Unknown
4:30 PM 96.8 °F 101.8 °F 68.0 °F 39% 29.62 in 6.2 mi NE 5.8 mph - N/A   Scattered Clouds
5:00 PM 98.6 °F 104.1 °F 68.0 °F 37% 29.62 in 6.2 mi North 4.6 mph - N/A   Unknown
5:30 PM 96.8 °F 103.1 °F 69.8 °F 41% 29.62 in 6.2 mi NNW 5.8 mph - N/A   Unknown
6:00 PM 96.8 °F 103.1 °F 69.8 °F 41% 29.65 in 6.2 mi North 5.8 mph - N/A   Unknown
6:30 PM 93.2 °F 98.8 °F 69.8 °F 46% 29.65 in 6.2 mi NNE 12.7 mph - N/A   Unknown
6:47 PM 89.6 °F 96.2 °F 71.6 °F 55% 29.65 in 6.2 mi ESE 20.7 mph 33.4 mph N/A   Scattered Clouds
7:01 PM 80.6 °F 83.9 °F 69.8 °F 70% 29.68 in 6.2 mi ESE 31.1 mph - N/A Hail Light Hail
7:02 PM 80.6 °F 83.2 °F 68.0 °F 65% 29.68 in 6.2 mi ESE 31.1 mph - N/A Rain Light Rain
7:03 PM 78.8 °F - 69.8 °F 74% 29.68 in 6.2 mi ESE 29.9 mph 41.4 mph N/A Rain Light Rain
7:04 PM 78.8 °F - 69.8 °F 74% 29.68 in 6.2 mi ESE 28.8 mph 41.4 mph N/A Hail Light Hail
7:07 PM 78.8 °F - 68.0 °F 69% 29.68 in 5.0 mi ESE 26.5 mph 41.4 mph N/A Hail Light Hail
7:10 PM 73.4 °F - 69.8 °F 88% 29.68 in 3.1 mi SE 25.3 mph 58.7 mph N/A Hail Hail
7:11 PM 73.4 °F - 71.6 °F 94% 29.68 in - South 26.5 mph 58.7 mph N/A Hail Hail
7:17 PM 75.2 °F - 73.4 °F 94% 29.74 in 0.7 mi WSW 12.7 mph - N/A Rain Heavy Rain Showers
7:20 PM 77.0 °F - 77.0 °F 100% 29.68 in 0.6 mi West 24.2 mph - N/A Rain Heavy Rain Showers
7:23 PM 77.0 °F - 75.2 °F 94% 29.68 in 0.7 mi West 25.3 mph 36.8 mph N/A Rain Heavy Rain Showers
7:29 PM 77.0 °F - 75.2 °F 94% 29.71 in 1.4 mi North 11.5 mph - N/A Rain Heavy Rain Showers
7:30 PM 75.2 °F - 75.2 °F 100% 29.71 in 1.6 mi North 10.4 mph - N/A Rain Heavy Rain Showers
7:40 PM 75.2 °F - 73.4 °F 94% 29.71 in 4.3 mi NNW 8.1 mph - N/A Rain Rain Showers
7:51 PM 75.2 °F - 75.2 °F 100% 29.71 in 6.2 mi NW 8.1 mph - N/A Rain Light Rain
8:00 PM 75.2 °F - 75.2 °F 100% 29.74 in - West 10.4 mph - N/A   Unknown
8:11 PM 75.2 °F - 75.2 °F 100% 29.80 in - ENE 19.6 mph - N/A   Unknown
8:30 PM 77.0 °F - 75.2 °F 94% 29.77 in 6.2 mi North 6.9 mph - N/A Rain Light Rain
9:00 PM 77.0 °F - 75.2 °F 94% 29.77 in 6.2 mi NNW 10.4 mph - N/A Rain Light Rain Showers
9:30 PM 77.0 °F - 73.4 °F 89% 29.80 in 6.2 mi North 8.1 mph - N/A Rain Light Rain Showers
10:00 PM 77.0 °F - 73.4 °F 89% 29.80 in 6.2 mi North 8.1 mph - N/A Rain Light Rain Showers
10:30 PM 77.0 °F - 73.4 °F 89% 29.77 in 6.2 mi NW 5.8 mph - N/A   Unknown
11:00 PM 75.2 °F - 73.4 °F 94% 29.77 in 6.2 mi West 5.8 mph - N/A   Unknown
11:18 PM 77.0 °F - 73.4 °F 89% 29.80 in 5.0 mi NNW 1.2 mph - N/A   Unknown
11:30 PM 77.0 °F - 73.4 °F 89% 29.80 in 6.2 mi NNE 5.8 mph - N/A   Unknown
11:36 PM 77.0 °F - 73.4 °F 89% 29.80 in 6.2 mi NNE 5.8 mph - N/A   Unknown